Location: Bishopstone
(51.0167°N, 1.9000°W)
Time: 04:24:30
(UTC+00:00)

SPOT 3 Rocket - Pass Details

Date: 16 September 2019
Orbit: 779 x 794 km, 98.8° (Epoch: 17 October)

Event Time Altitude Azimuth Distance (km) Brightness Sun altitude
Exits shadow 19:32:29 - 159° (SSE) 3,019 6.2 -11.9°
Reaches altitude 10° 19:34:12 10° 159° (SSE) 2,330 5.6 -12.2°
Maximum altitude 19:39:21 82° 72° (ENE) 795 3.5 -12.9°
Drops below altitude 10° 19:44:32 10° 346° (NNW) 2,347 6.5 -13.7°
Sets 19:46:51 0° 346° (NNW) 3,280 7.3 -14.0°
